Nassau, Bahamas

10:09 PM EDT on April 26, 2018 (GMT -0400)
Nassau International

Weather History for MYNN - July, 2013

Change the Weather History Date:

Monday, July 29, 2013

  Actual Average Record
Temperature  
Mean Temperature 86 °F -  
Max Temperature 92 °F 89 °F 95 °F (2016)
Min Temperature 81 °F 75 °F 71 °F (2002)
Cooling Degree Days 22    
Growing Degree Days 36 (Base 50)    
Moisture  
Dew Point 76 °F    
Average Humidity 74    
Maximum Humidity 84    
Minimum Humidity 58    
Precipitation  
Precipitation 0.00 in 0.28 in - ()
Sea Level Pressure  
Sea Level Pressure 30.10 in    
Wind  
Wind Speed 6 mph ()    
Max Wind Speed 14 mph    
Max Gust Speed -    
Visibility 6.7 miles    
Events Rain , Thunderstorm    
Averages and records for this station are not official NWS values.
T = Trace of Precipitation, MM = Missing Value Source: Averaged Metar Reports

Daily Weather History Graph

Daily Weather History Graph

Search for Another Location

Airport or City:

Astronomy

Jul. 29, 2013 Rise Set
Actual Time 6:36 AM EDT 7:56 PM EDT
Civil Twilight 6:11 AM EDT 8:20 PM EDT
Nautical Twilight 5:42 AM EDT 8:50 PM EDT
Astronomical Twilight 5:11 AM EDT 9:20 PM EDT
Moon 12:07 AM EDT (7/29) 1:22 PM EDT (7/29)
Length of Visible Light 14h 09m
Length of Day
13h 20m
Waning Gibbous, 51% of the Moon is Illuminated
Jul 29
Waning Gibbous
Jul 29
Last Quarter
Aug 6
New
Aug 14
First Quarter
Aug 20
Full

Hourly Weather History & Observations

Time (EDT) Temp. Heat Index Dew Point Humidity Pressure Visibility Wind Dir Wind Speed Gust Speed Precip Events Conditions
12:00 AM 82.4 °F 89.5 °F 75.2 °F 79% 30.08 in 0.6 mi North - - N/A   Scattered Clouds
1:00 AM 82.4 °F 90.9 °F 77.0 °F 84% 30.03 in 6.2 mi East 3.5 mph - N/A Rain Light Rain Showers
2:00 AM 82 °F - 78 °F 83% 30.06 in 9 mi ESE 5.8 mph - - Rain Light Rain Showers
2:00 AM 82.4 °F 90.9 °F 77.0 °F 84% 30.06 in 6.2 mi ESE 5.8 mph - N/A   Scattered Clouds
4:00 AM 82.4 °F 90.9 °F 77.0 °F 84% 30.03 in 6.2 mi ESE 6.9 mph - N/A   Scattered Clouds
5:00 AM 82 °F - 77 °F 79% 30.03 in 9 mi ESE 4.6 mph - -   Partly Cloudy
5:00 AM 82.4 °F 90.9 °F 77.0 °F 84% 30.03 in 6.2 mi ESE 4.6 mph - N/A   Scattered Clouds
6:00 AM 82.4 °F 89.5 °F 75.2 °F 79% 30.03 in 6.2 mi SE 3.5 mph - N/A   Scattered Clouds
7:00 AM 82.4 °F 89.5 °F 75.2 °F 79% 30.05 in 6.2 mi SE 6.9 mph - N/A   Scattered Clouds
8:00 AM 84 °F - 76 °F 71% 30.08 in 9 mi ESE 8.1 mph - -   Partly Cloudy
8:00 AM 84.2 °F 94.1 °F 77.0 °F 79% 30.08 in 6.2 mi ESE 8.1 mph - N/A   Mostly Cloudy
9:00 AM 84.2 °F 90.9 °F 73.4 °F 70% 30.10 in 6.2 mi SE 9.2 mph - N/A   Mostly Cloudy
11:00 AM 87.8 °F 99.7 °F 77.0 °F 70% 30.13 in 6.2 mi East 9.2 mph - N/A   Mostly Cloudy
12:00 PM 87.8 °F 97.6 °F 75.2 °F 66% 30.13 in 6.2 mi ESE 8.1 mph - N/A   Scattered Clouds
1:00 PM 87.8 °F 97.6 °F 75.2 °F 66% 30.13 in 6.2 mi SE 9.2 mph - N/A   Scattered Clouds
2:00 PM 90 °F - 77 °F 58% 30.13 in 9 mi SE 9.2 mph - -   Partly Cloudy
2:00 PM 89.6 °F 102.2 °F 77.0 °F 66% 30.12 in 6.2 mi SE 9.2 mph - N/A   Mostly Cloudy
3:00 PM 89.6 °F 99.8 °F 75.2 °F 62% 30.12 in 6.2 mi ESE 13.8 mph - N/A   Mostly Cloudy
5:00 PM 89 °F - 77 °F 59% 30.11 in 9 mi ESE 9.2 mph - -   Partly Cloudy
5:00 PM 89.6 °F 102.2 °F 77.0 °F 66% 30.11 in 6.2 mi ESE 9.2 mph - N/A   Mostly Cloudy
6:00 PM 86.0 °F 93.4 °F 73.4 °F 66% 30.09 in 6.2 mi ESE 11.5 mph - N/A   Mostly Cloudy
7:00 PM 86.0 °F 95.1 °F 75.2 °F 70% 30.10 in 6.2 mi East 9.2 mph - N/A   Scattered Clouds
8:00 PM 84 °F - 77 °F 73% 30.12 in 9 mi East 6.9 mph - -   Scattered Clouds
8:00 PM 84.2 °F 94.1 °F 77.0 °F 79% 30.11 in 6.2 mi East 6.9 mph - N/A   Mostly Cloudy
9:00 PM 84.2 °F 92.3 °F 75.2 °F 74% 30.14 in - East 11.5 mph - N/A Rain , Thunderstorm Light Thunderstorms and Rain
9:20 PM 84.2 °F 94.1 °F 77.0 °F 79% 30.15 in 6.2 mi East 6.9 mph - N/A   Mostly Cloudy
10:00 PM 84.2 °F 92.3 °F 75.2 °F 74% 30.16 in 6.2 mi East 4.6 mph - N/A   Mostly Cloudy
11:00 PM 84 °F - 78 °F 76% 30.16 in 8 mi East 5.8 mph - -   Partly Cloudy
11:00 PM 84.2 °F 94.1 °F 77.0 °F 79% 30.16 in 6.2 mi East 5.8 mph - N/A   Scattered Clouds